DW3383 Weather Reports


Display with metric or nautical units.
time (UTC)temp
F
wind
direction
speed
MPH
gust
MPH
rain 1hr
in
rain 24hr
in
rain mn
in
humidity
%
barometer
mb
20260906230804 67 49 0.0 2.0 0.00 0.00 0.00 54 1013.5
20260906230305 67 31 1.0 3.0 0.00 0.00 0.00 54 1013.5
20260906220804 64 35 1.0 2.0 0.00 0.00 0.00 60 1013.8
20260906220305 64 71 1.0 5.0 0.00 0.00 0.00 57 1013.9
20260906210304 62 114 1.0 5.0 0.00 0.00 0.00 61 1014.7
20260906200804 59 87 1.0 3.0 0.00 0.00 0.00 64 1015.3
20260906200304 59 346 1.0 5.0 0.00 0.00 0.00 66 1015.3
20260906190804 56 286 0.0 2.0 0.00 0.00 0.00 74 1016.0
20260906190304 55 321 0.0 3.0 0.00 0.00 0.00 75 1016.1
20260906180804 52 59 0.0 2.0 0.00 0.00 0.00 81 1016.8
20260906180304 52 56 0.0 7.0 0.00 0.00 0.00 81 1016.9
20260906170804 49 275 5.0 7.0 0.00 0.00 0.00 87 1017.2
20260906170304 48 272 5.0 7.0 0.00 0.00 0.00 89 1017.3
20260906160805 44 248 2.0 2.0 0.00 0.00 0.00 99 1017.3
20260906150804 39 279 3.0 5.0 0.00 0.00 0.00 99 1017.4
20260906150304 38 275 3.0 5.0 0.00 0.00 0.00 99 1017.3
20260906140804 36 260 3.0 5.0 0.00 0.00 0.00 98 1017.2
20260906140304 36 229 3.0 5.0 0.00 0.00 0.00 98 1017.2
20260906130805 38 282 3.0 3.0 0.00 0.00 0.00 98 1016.8
20260906130305 38 276 3.0 3.0 0.00 0.00 0.00 98 1016.7
20260906120805 38 271 3.0 3.0 0.00 0.00 0.00 98 1016.8
20260906120305 38 268 3.0 5.0 0.00 0.00 0.00 97 1016.8
20260906110806 40 273 3.0 6.0 0.00 0.00 0.00 97 1016.5
20260906100306 42 283 6.0 7.0 0.00 0.00 0.00 94 1015.8
20260906090805 44 132 5.0 7.0 0.00 0.00 0.00 91 1015.4
20260906090305 44 281 3.0 7.0 0.00 0.00 0.00 92 1015.4
20260906080805 46 271 2.0 5.0 0.00 0.00 0.00 89 1015.2
20260906080305 46 335 3.0 5.0 0.00 0.00 0.00 88 1015.2
20260906070812 50 21 2.0 5.0 0.00 0.00 0.00 81 1014.7
20260906070305 50 272 5.0 6.0 0.00 0.00 0.00 81 1014.6
20260906060805 53 265 3.0 5.0 0.00 0.00 0.00 76 1014.0
20260906060305 53 142 1.0 3.0 0.00 0.00 0.00 75 1014.0
20260906050305 58 77 0.0 3.0 0.00 0.00 0.00 66 1013.3
20260906040805 61 97 1.0 3.0 0.00 0.00 0.00 60 1012.8
20260906040306 62 77 1.0 3.0 0.00 0.00 0.00 60 1012.8
20260906020806 70 47 2.0 3.0 0.00 0.00 0.00 42 1012.2
20260906020305 70 3 2.0 6.0 0.00 0.00 0.00 42 1012.3
20260906010805 72 22 2.0 3.0 0.00 0.00 0.00 40 1012.1
20260906000805 71 39 2.0 2.0 0.00 0.00 0.00 48 1012.5
20260906000305 71 356 1.0 3.0 0.00 0.00 0.00 46 1012.4